Weather History for Marshfield, WI

Change the Weather History Date:

Monday, February 11, 2013

  Actual Average Record
Temperature  
Mean Temperature 29 °F -  
Max Temperature 35 °F 25 °F 51 °F (1918)
Min Temperature 21 °F 6 °F -21 °F (1914)
Degree Days  
Heating Degree Days 36    
Moisture  
Dew Point 26 °F    
Average Humidity 88    
Maximum Humidity 96    
Minimum Humidity 75    
Precipitation  
Precipitation 0.01 in - - ()
Sea Level Pressure  
Sea Level Pressure 29.51 in    
Wind  
Wind Speed 13 mph (West)    
Max Wind Speed 23 mph    
Max Gust Speed 31 mph    
Visibility 6 miles    
Events Snow    
Averages and records for this station are not official NWS values.
T = Trace of Precipitation, MM = Missing Value Source: NWS Daily Summary

Daily Weather History Graph

Daily Weather History Graph

Search for Another Location

Airport:

Trip Planner

Search our weather history database for the weather conditions in past years. The results will help you decide how hot, cold, wet, or windy it might be!

Date:

Astronomy

Feb. 11, 2013 Rise Set
Actual Time 7:06 AM CST 5:24 PM CST
Civil Twilight 6:36 AM CST 5:54 PM CST
Nautical Twilight 6:01 AM CST 6:28 PM CST
Astronomical Twilight 5:28 AM CST 7:02 PM CST
Moon 7:25 AM CST (2/11) 7:28 PM CST (2/11)
Length of Visible Light 11h 18m
Length of Day
10h 17m
Waxing Crescent, 3% of the Moon is Illuminated
Feb 11
Waxing Crescent
Feb 17
First Quarter
Feb 25
Full
Mar 4
Last Quarter
Mar 11
New

Hourly Weather History & Observations

Time (CST) Temp. Windchill Dew Point Humidity Pressure Visibility Wind Dir Wind Speed Gust Speed Precip Events Conditions
12:12 AM 35.6 °F 27.1 °F 33.8 °F 93% 29.25 in 10.0 mi SSW 12.7 mph - N/A   Overcast
12:54 AM 34.0 °F 25.5 °F 33.1 °F 96% 29.29 in 10.0 mi SSW 11.5 mph - 0.00 in   Overcast
1:33 AM 33.8 °F 27.0 °F 32.0 °F 93% 29.24 in 4.0 mi SSW 8.1 mph - 0.00 in Snow Light Snow
1:54 AM 33.1 °F 25.5 °F 32.0 °F 96% 29.29 in 4.0 mi SSW 9.2 mph - 0.00 in Snow Light Snow
2:06 AM 33.8 °F 27.0 °F 32.0 °F 93% 29.25 in 2.5 mi SSW 8.1 mph - 0.00 in   Overcast
2:27 AM 33.8 °F 26.4 °F 32.0 °F 93% 29.25 in 4.0 mi SSW 9.2 mph - 0.00 in   Overcast
2:54 AM 33.1 °F 26.9 °F 32.0 °F 96% 29.29 in 3.0 mi SW 6.9 mph - 0.00 in Snow Light Snow
3:54 AM 32.0 °F 24.8 °F 30.9 °F 96% 29.29 in 3.0 mi SW 8.1 mph - 0.01 in Snow Light Snow
4:18 AM 32.0 °F 23.6 °F 30.2 °F 93% 29.26 in 6.0 mi SW 10.4 mph - 0.00 in Snow Light Snow
4:48 AM 32.0 °F 24.2 °F 30.2 °F 93% 29.27 in 1.8 mi WSW 9.2 mph - 0.00 in Snow Light Snow
4:54 AM 32.0 °F 24.8 °F 30.9 °F 96% 29.31 in 1.5 mi WSW 8.1 mph - 0.00 in Snow Light Snow
5:54 AM 32.0 °F 21.6 °F 30.9 °F 96% 29.34 in 1.5 mi West 15.0 mph 21.9 mph 0.00 in Snow Light Snow
6:10 AM 32.0 °F 21.2 °F 30.2 °F 93% 29.32 in 1.0 mi West 16.1 mph 24.2 mph 0.00 in Snow Light Snow
6:22 AM 32.0 °F 21.2 °F 30.2 °F 93% 29.33 in 0.8 mi West 16.1 mph 25.3 mph 0.00 in Snow Light Snow
6:33 AM 32.0 °F 21.2 °F 30.2 °F 93% 29.34 in 1.0 mi West 16.1 mph 23.0 mph 0.00 in Snow Light Snow
6:42 AM 32.0 °F 20.1 °F 30.2 °F 93% 29.34 in 2.0 mi WNW 19.6 mph 24.2 mph 0.00 in Snow Light Snow
6:54 AM 32.0 °F 21.2 °F 30.0 °F 92% 29.39 in 2.5 mi WNW 16.1 mph 25.3 mph 0.00 in Snow Light Snow
7:03 AM 32.0 °F 20.5 °F 28.4 °F 87% 29.36 in 5.0 mi WNW 18.4 mph - 0.00 in Snow Light Snow
7:17 AM 32.0 °F 20.8 °F 28.4 °F 87% 29.38 in 3.0 mi WNW 17.3 mph 26.5 mph 0.00 in Snow Light Snow
7:27 AM 30.2 °F 16.8 °F 28.4 °F 93% 29.39 in 2.5 mi WNW 23.0 mph 31.1 mph 0.00 in Snow Light Snow
7:45 AM 30.2 °F 18.9 °F 28.4 °F 93% 29.40 in 1.2 mi WNW 16.1 mph 26.5 mph 0.00 in Snow Light Snow
7:54 AM 30.9 °F 19.4 °F 28.9 °F 92% 29.45 in 1.2 mi WNW 17.3 mph 26.5 mph 0.00 in Snow Light Snow
8:17 AM 30.2 °F 18.9 °F 28.4 °F 93% 29.43 in 2.0 mi West 16.1 mph 25.3 mph 0.00 in Snow Light Snow
8:31 AM 30.2 °F 18.5 °F 28.4 °F 93% 29.44 in 4.0 mi West 17.3 mph 25.3 mph 0.00 in Snow Light Snow
8:54 AM 30.9 °F 20.7 °F 28.0 °F 89% 29.49 in 7.0 mi WNW 13.8 mph 25.3 mph 0.00 in   Overcast
9:42 AM 30.2 °F 18.1 °F 26.6 °F 86% 29.49 in 3.0 mi WNW 18.4 mph - 0.00 in Snow Light Snow
9:54 AM 30.0 °F 18.3 °F 27.0 °F 88% 29.54 in 4.0 mi WNW 17.3 mph 31.1 mph 0.00 in Snow Light Snow
10:44 AM 28.4 °F 15.8 °F 26.6 °F 93% 29.54 in 6.0 mi WNW 18.4 mph 31.1 mph 0.00 in   Overcast
10:54 AM 28.9 °F 16.1 °F 26.1 °F 89% 29.59 in 9.0 mi WNW 19.6 mph 29.9 mph 0.00 in   Overcast
11:54 AM 28.0 °F 14.6 °F 24.1 °F 85% 29.63 in 9.0 mi WNW 20.7 mph 28.8 mph 0.00 in   Overcast
12:54 PM 27.0 °F 14.3 °F 21.9 °F 81% 29.68 in 10.0 mi WNW 17.3 mph 27.6 mph 0.00 in   Overcast
1:54 PM 26.1 °F 13.6 °F 21.9 °F 84% 29.71 in 9.0 mi WNW 16.1 mph 28.8 mph 0.00 in   Overcast
2:54 PM 25.0 °F 10.6 °F 19.0 °F 78% 29.75 in 8.0 mi WNW 20.7 mph 31.1 mph 0.00 in   Overcast
3:54 PM 25.0 °F 12.2 °F 19.0 °F 78% 29.79 in 10.0 mi WNW 16.1 mph 28.8 mph N/A   Overcast
4:54 PM 25.0 °F 11.3 °F 18.0 °F 75% 29.83 in 9.0 mi WNW 18.4 mph 28.8 mph N/A   Overcast
5:54 PM 24.1 °F 11.5 °F 17.1 °F 75% 29.86 in 10.0 mi WNW 15.0 mph 24.2 mph N/A   Overcast
6:54 PM 24.1 °F 11.0 °F 17.1 °F 75% 29.89 in 10.0 mi WNW 16.1 mph 27.6 mph N/A   Overcast
7:54 PM 24.1 °F 13.1 °F 18.0 °F 77% 29.91 in 10.0 mi WNW 11.5 mph - N/A   Overcast
8:54 PM 24.1 °F 13.1 °F 18.0 °F 77% 29.93 in 10.0 mi West 11.5 mph - N/A   Overcast
9:54 PM 24.1 °F 11.5 °F 17.1 °F 75% 29.95 in 10.0 mi WNW 15.0 mph 24.2 mph N/A   Overcast
10:54 PM 23.0 °F 10.1 °F 17.1 °F 78% 29.97 in 10.0 mi WNW 15.0 mph - N/A   Overcast
11:54 PM 21.9 °F 9.2 °F 16.0 °F 78% 29.98 in 10.0 mi WNW 13.8 mph 21.9 mph N/A   Overcast